Location: Coopersdale
(40.3556°N, 78.9372°W)
Time: 07:26:24
(UTC+00:00)

Tiros 1 - Pass Details

Date: 30 January 2021
Orbit: 630 x 664 km, 48.4° (Epoch: 05 March)

Event Time Altitude Azimuth Distance (km) Brightness Sun altitude
Rises 00:54:53 0° 297° (WNW) 2,928 11.5 -27.5°
Reaches altitude 10° 00:57:23 10° 306° (NW) 2,015 10.3 -28.0°
Enters shadow 01:00:06 28° 334° (NNW) 1,196 8.7 -28.5°
